Change the Weather History Date:

Wednesday, August 20, 2014

  Actual Average (KESC) Record (KESC)
Temperature  
Mean Temperature 60 °F -  
Max Temperature 64 °F 72 °F 94 °F (1955)
Min Temperature 57 °F 55 °F 40 °F (1950)
Degree Days  
Heating Degree Days 4    
Growing Degree Days 10 (Base 50)    
Moisture  
Dew Point 58 °F    
Average Humidity 94    
Maximum Humidity 100    
Minimum Humidity 83    
Precipitation  
Precipitation 0.00 in - - ()
Sea Level Pressure  
Sea Level Pressure 29.84 in    
Wind  
Wind Speed 5 mph (NNW)    
Max Wind Speed 8 mph    
Max Gust Speed -    
Visibility 5 miles    
Events Fog , Rain    
Averages and records for this station are not official NWS values.
T = Trace of Precipitation, MM = Missing Value Source: NWS Daily Summary

Daily Weather History Graph

Daily Weather History Graph

Search for Another Location

Airport or City:

Trip Planner

Search our weather history database for the weather conditions in past years. The results will help you decide how hot, cold, wet, or windy it might be!

Date:

Astronomy

Aug. 20, 2014 Rise Set
Actual Time 6:54 AM EDT 8:50 PM EDT
Civil Twilight 6:22 AM EDT 9:22 PM EDT
Nautical Twilight 5:42 AM EDT 10:02 PM EDT
Astronomical Twilight 4:58 AM EDT 10:45 PM EDT
Moon 2:27 AM EDT (8/20) 5:41 PM EDT (8/20)
Length of Visible Light 15h 00m
Length of Day
13h 55m
Waning Crescent, 21% of the Moon is Illuminated
Aug 20
Waning Crescent
Aug 25
New
Sep 2
First Quarter
Sep 8
Full
Sep 15
Last Quarter

Hourly Weather History & Observations

Time (EDT) Temp. Dew Point Humidity Pressure Visibility Wind Dir Wind Speed Gust Speed Precip Events Conditions
12:17 AM 57.7 °F 56.8 °F 97% 29.75 in 1.0 mi North 6.9 mph - N/A   Overcast
12:37 AM 58.1 °F 57.2 °F 97% 29.76 in 2.0 mi NNW 6.9 mph - N/A   Overcast
12:57 AM 58.1 °F 57.2 °F 97% 29.76 in 2.0 mi NNW 6.9 mph - N/A   Overcast
1:17 AM 59.0 °F 57.2 °F 94% 29.76 in 1.0 mi North 5.8 mph - N/A   Overcast
1:37 AM 57.9 °F 57.2 °F 97% 29.76 in 1.8 mi North 3.5 mph - N/A   Overcast
1:57 AM 57.9 °F 57.2 °F 97% 29.76 in 3.0 mi North 5.8 mph - N/A   Overcast
2:17 AM 58.1 °F 57.2 °F 97% 29.76 in 4.0 mi North 4.6 mph - N/A   Overcast
2:37 AM 58.1 °F 57.2 °F 97% 29.76 in 5.0 mi North 3.5 mph - N/A   Overcast
2:57 AM 58.1 °F 57.2 °F 97% 29.76 in 10.0 mi North 4.6 mph - N/A   Overcast
3:17 AM 58.1 °F 57.2 °F 97% 29.76 in 10.0 mi NNW 3.5 mph - N/A   Overcast
3:37 AM 57.9 °F 57.2 °F 97% 29.77 in 10.0 mi NNW 4.6 mph - N/A   Overcast
3:57 AM 58.1 °F 57.2 °F 97% 29.77 in 10.0 mi NNW 4.6 mph - N/A   Overcast
4:16 AM 58.1 °F 57.2 °F 97% 29.77 in 4.0 mi North 3.5 mph - N/A   Overcast
4:36 AM 57.9 °F 57.0 °F 97% 29.77 in 2.0 mi NNW 4.6 mph - N/A   Overcast
4:57 AM 57.9 °F 57.2 °F 97% 29.78 in 0.8 mi NNW 4.6 mph - N/A   Overcast
5:17 AM 57.7 °F 57.2 °F 98% 29.78 in 0.5 mi NNW 3.5 mph - N/A Fog Fog
5:37 AM 58.1 °F 57.2 °F 97% 29.79 in 0.5 mi Calm Calm - N/A Fog Fog
5:57 AM 58.1 °F 57.2 °F 97% 29.79 in 1.0 mi NNW 4.6 mph - N/A   Overcast
6:55 AM 57.2 °F 57.2 °F 100% 29.81 in 2.5 mi WNW 3.5 mph - N/A Rain Light Rain
8:50 AM 59.0 °F 57.2 °F 94% 29.83 in 10.0 mi NNW 4.6 mph - N/A   Overcast
9:50 AM 59.0 °F 59.0 °F 100% 29.84 in 7.0 mi North 4.6 mph - N/A   Overcast
10:55 AM 62.6 °F 59.0 °F 88% 29.84 in 10.0 mi North 6.9 mph - N/A   Overcast
11:55 AM 62.6 °F 59.0 °F 88% 29.86 in 10.0 mi NNW 8.1 mph - N/A   Overcast
12:50 PM 64.4 °F 59.0 °F 83% 29.88 in 10.0 mi WNW 4.6 mph - N/A   Overcast
1:45 PM 62.6 °F 59.0 °F 88% 29.89 in 4.0 mi Calm Calm - N/A   Light Drizzle
2:45 PM 64.4 °F 59.0 °F 83% 29.89 in 10.0 mi WNW 3.5 mph - N/A   Overcast
3:45 PM 64.4 °F 59.0 °F 83% 29.89 in 10.0 mi WNW 4.6 mph - N/A   Overcast
4:45 PM 64.4 °F 59.0 °F 83% 29.90 in 10.0 mi WNW 3.5 mph - N/A   Overcast
5:50 PM 64.4 °F 60.8 °F 88% 29.91 in 10.0 mi East 4.6 mph - N/A   Overcast
6:50 PM 60.8 °F 59.0 °F 94% 29.92 in 7.0 mi East 5.8 mph - N/A   Overcast
7:50 PM 60.8 °F 59.0 °F 94% 29.93 in 7.0 mi East 3.5 mph - N/A   Overcast
8:50 PM 60.8 °F 59.0 °F 94% 29.94 in 0.2 mi NE 4.6 mph - N/A Fog Fog
9:50 PM 59.0 °F 57.2 °F 94% 29.96 in 1.0 mi NE 3.5 mph - N/A   Overcast
10:17 PM 59.0 °F 58.1 °F 97% 29.96 in 3.0 mi Calm Calm - N/A   Overcast
10:37 PM 59.0 °F 58.1 °F 97% 29.96 in 5.0 mi Calm Calm - N/A   Overcast
10:57 PM 58.5 °F 57.4 °F 96% 29.97 in 5.0 mi Calm Calm - N/A   Overcast
11:17 PM 58.3 °F 57.2 °F 96% 29.96 in 7.0 mi Calm Calm - N/A   Overcast
11:37 PM 57.7 °F 56.7 °F 96% 29.97 in 1.8 mi NE 4.6 mph - N/A   Overcast
11:57 PM 57.7 °F 56.8 °F 97% 29.97 in 0.5 mi Calm Calm - N/A Fog Fog